Home > Weather > Leiden > Past weeks

Flag for Netherlands Past Weather in Leiden, Netherlands — Yesterday and Last 2 Weeks

Now
66 °F

Mild.


Feels Like: 66 °F
Forecast: 63 / 73 °F
Wind: 2 mph from Northeast

Location: Rotterdam Zestienhoven Airport

Current Time: Aug 25, 2016 at 3:23:56 AM

Latest Report: Aug 25, 2016 at 2:55 AM


Visibility: N/A

Pressure: 30.01 "Hg

Humidity: 94%

Dew Point: 64 °F

Location of LeidenLocation

Past Weather in Leiden — Graph

°F

Leiden Temperature Yesterday

Maximum temperature yesterday: 90 °F (at 4:25 PM)
Minimum temperature yesterday: 63 °F (at 5:55 AM)
Average temperature yesterday: 77 °F

High & Low Weather Summary for the Past Weeks

 TemperatureHumidityPressure
High90 °F (Aug 24, 4:25 PM)100% (Aug 10, 5:25 AM)30.30 "Hg (Aug 10, 5:25 AM)
Low48 °F (Aug 10, 11:55 PM)32% (Aug 17, 4:25 PM)29.71 "Hg (Aug 19, 7:55 PM)
Average65 °F77%30.07 "Hg
* Reported Aug 10 1:25 AM — Aug 25 1:55 AM, Leiden, Weather by CustomWeather, © 2016

Note: Actual official high and low records may vary slightly from our data, if they occured in-between our weather recording intervals... More about our weather records

Advertising

Leiden Weather History for the Previous 24 Hours

Scroll right to see more
 ConditionsComfort  
Time TempWeatherWind HumidityBarometerVisibility
1:55 AM
Thu, Aug 25
68 °FMild.1 mph88%30.04 "HgN/A
1:25 AM72 °FMild.3 mph78%30.04 "HgN/A
12:55 AM72 °FMild.5 mph78%30.04 "HgN/A
12:25 AM70 °FMild.3 mph78%30.04 "HgN/A
11:55 PM
Wed, Aug 24
72 °FClear.3 mph73%30.04 "HgN/A
11:25 PM72 °FMild.3 mph78%30.04 "HgN/A
10:55 PM75 °FMild.5 mph69%30.04 "HgN/A
10:25 PM77 °FWarm.7 mph65%30.07 "HgN/A
9:55 PM77 °FWarm.6 mph65%30.07 "HgN/A
9:25 PM79 °FWarm.6 mph58%30.07 "HgN/A
8:55 PM81 °FClear.6 mph58%30.07 "HgN/A
8:25 PM82 °FWarm.7 mph55%30.07 "HgN/A
7:55 PM86 °FWarm.7 mph43%30.04 "HgN/A
7:25 PM88 °FWarm.9 mph40%30.04 "HgN/A
6:55 PM88 °FWarm.10 mph43%30.07 "HgN/A
6:25 PM90 °FHot.8 mph41%30.07 "HgN/A
5:55 PM90 °FHot.9 mph41%30.07 "HgN/A
5:25 PM90 °FHot.10 mph38%30.07 "HgN/A
4:55 PM90 °FHot.9 mph41%30.07 "HgN/A
4:25 PM90 °FHot.8 mph43%30.07 "HgN/A
3:55 PM88 °FClear.10 mph46%30.07 "HgN/A
3:25 PM88 °FClear.10 mph46%30.09 "HgN/A
2:55 PM88 °FWarm.10 mph46%30.09 "HgN/A
2:25 PM86 °FClear.8 mph49%30.09 "HgN/A
1:55 PM86 °FClear.8 mph49%30.09 "HgN/A
1:25 PM84 °FWarm.7 mph51%30.09 "HgN/A
12:55 PM82 °FWarm.8 mph55%30.12 "HgN/A
12:25 PM82 °FWarm.8 mph55%30.12 "HgN/A
11:55 AM81 °FWarm.7 mph54%30.12 "HgN/A
11:25 AM81 °FWarm.7 mph51%30.12 "HgN/A
10:55 AM79 °FClear.8 mph58%30.12 "HgN/A
10:25 AM79 °FWarm.7 mph54%30.12 "HgN/A
9:55 AM77 °FClear.7 mph57%30.12 "HgN/A
9:25 AM75 °FClear.8 mph61%30.15 "HgN/A
8:55 AM73 °FMild.7 mph65%30.15 "HgN/A
8:25 AM72 °FMild.3 mph69%30.15 "HgN/A
7:55 AM70 °FMild.1 mph73%30.15 "HgN/A
7:25 AM66 °FMild.1 mph83%30.15 "HgN/A
6:55 AM63 °FMild.3 mph88%30.15 "HgN/A
6:25 AM63 °FMild.2 mph88%30.15 "HgN/A
5:55 AM63 °FMild.3 mph88%30.12 "HgN/A
5:25 AM66 °FClear.2 mph83%30.12 "HgN/A
4:55 AM68 °FMild.5 mph78%30.15 "HgN/A
4:25 AM68 °FClear.6 mph78%30.15 "HgN/A
3:55 AM66 °FMild.6 mph83%30.15 "HgN/A
3:25 AM66 °FMild.6 mph83%30.15 "HgN/A
Weather by CustomWeather, © 2016

See weather overviewHow to use our weather pages